TimeEST,TemperatureF,Dew PointF,Humidity,Sea Level PressureIn,VisibilityMPH,Wind Direction,Wind SpeedMPH,Gust SpeedMPH,PrecipitationIn,Events,Conditions,WindDirDegrees,DateUTC
12:15 AM,59.0,50.0,72,29.95,7.0,SW,24.2,38.0,N/A,Rain,Rain,230,2012-11-12 05:15:00
12:35 AM,53.6,50.0,88,29.95,3.0,WNW,10.4,25.3,0.01,Rain,Rain,290,2012-11-12 05:35:00
12:55 AM,50.0,50.0,100,29.96,4.0,WNW,11.5,18.4,0.02,,Heavy Drizzle,290,2012-11-12 05:55:00
1:15 AM,50.0,50.0,100,29.96,5.0,West,6.9,-,N/A,,Heavy Drizzle,280,2012-11-12 06:15:00
1:35 AM,50.0,50.0,100,29.97,4.0,West,8.1,-,0.02,Rain,Heavy Rain,260,2012-11-12 06:35:00
1:55 AM,50.0,50.0,100,29.96,7.0,SW,4.6,-,0.05,Rain,Light Rain,230,2012-11-12 06:55:00
2:15 AM,50.0,50.0,100,29.95,7.0,SSW,3.5,-,0.01,Rain,Rain,200,2012-11-12 07:15:00
2:35 AM,50.0,50.0,100,29.95,7.0,SW,4.6,-,0.03,Rain,Light Rain,220,2012-11-12 07:35:00
2:55 AM,50.0,50.0,100,29.96,7.0,SW,5.8,-,0.07,Rain,Light Rain,220,2012-11-12 07:55:00
3:15 AM,50.0,50.0,100,29.97,5.0,SSW,6.9,-,0.02,Rain,Rain,210,2012-11-12 08:15:00
3:35 AM,48.2,46.4,93,29.97,7.0,West,16.1,24.2,0.05,Rain,Rain,280,2012-11-12 08:35:00
3:55 AM,42.8,42.8,100,29.98,4.0,West,15.0,-,0.08,Rain,Light Rain,280,2012-11-12 08:55:00
4:15 AM,42.8,41.0,93,30.00,5.0,West,12.7,-,0.01,Rain,Rain,280,2012-11-12 09:15:00
4:55 AM,41.0,41.0,100,29.99,10.0,West,8.1,-,0.03,,Overcast,280,2012-11-12 09:55:00
5:15 AM,41.0,39.2,93,30.02,5.0,West,16.1,23.0,0.01,,Overcast,270,2012-11-12 10:15:00
5:35 AM,39.2,37.4,93,30.03,5.0,West,12.7,18.4,0.01,,Overcast,280,2012-11-12 10:35:00
5:55 AM,37.4,35.6,93,30.02,7.0,WNW,11.5,-,0.01,,Overcast,290,2012-11-12 10:55:00
6:15 AM,37.4,35.6,93,30.03,7.0,West,9.2,-,N/A,,Overcast,280,2012-11-12 11:15:00
6:35 AM,37.4,35.6,93,30.03,5.0,West,11.5,16.1,0.01,,Overcast,280,2012-11-12 11:35:00
6:55 AM,35.6,35.6,100,30.05,7.0,West,13.8,17.3,0.01,,Overcast,280,2012-11-12 11:55:00
7:15 AM,35.6,35.6,100,30.06,5.0,West,16.1,20.7,N/A,,Overcast,260,2012-11-12 12:15:00
7:35 AM,35.6,33.8,93,30.06,7.0,WNW,16.1,20.7,N/A,,Overcast,290,2012-11-12 12:35:00
7:55 AM,33.8,32.0,93,30.08,7.0,West,12.7,-,N/A,,Overcast,280,2012-11-12 12:55:00
8:15 AM,33.8,32.0,93,30.11,5.0,West,17.3,21.9,N/A,Snow,Light Snow,280,2012-11-12 13:15:00
8:35 AM,32.0,32.0,100,30.11,4.0,West,15.0,19.6,N/A,Snow,Light Snow,280,2012-11-12 13:35:00
8:55 AM,32.0,32.0,100,30.12,0.8,West,12.7,20.7,N/A,Snow,Light Snow,270,2012-11-12 13:55:00
9:15 AM,32.0,30.2,93,30.14,10.0,West,16.1,23.0,N/A,Snow,Light Snow,260,2012-11-12 14:15:00
9:35 AM,32.0,30.2,93,30.14,10.0,West,12.7,23.0,N/A,,Overcast,280,2012-11-12 14:35:00
9:55 AM,32.0,28.4,87,30.16,10.0,West,21.9,27.6,N/A,,Overcast,260,2012-11-12 14:55:00
10:15 AM,32.0,28.4,87,30.15,10.0,West,15.0,24.2,N/A,,Mostly Cloudy,270,2012-11-12 15:15:00
10:35 AM,32.0,28.4,87,30.15,10.0,West,19.6,26.5,N/A,,Scattered Clouds,270,2012-11-12 15:35:00
10:55 AM,32.0,26.6,80,30.16,10.0,West,13.8,26.5,N/A,,Mostly Cloudy,280,2012-11-12 15:55:00
11:15 AM,32.0,26.6,80,30.17,10.0,West,18.4,25.3,N/A,,Mostly Cloudy,270,2012-11-12 16:15:00
11:35 AM,33.8,28.4,81,30.17,10.0,WSW,19.6,26.5,N/A,,Overcast,250,2012-11-12 16:35:00
11:55 AM,32.0,26.6,80,30.17,10.0,West,16.1,24.2,N/A,,Mostly Cloudy,270,2012-11-12 16:55:00
12:15 PM,33.8,28.4,81,30.17,10.0,West,20.7,27.6,N/A,,Scattered Clouds,260,2012-11-12 17:15:00
12:35 PM,35.6,28.4,75,30.17,10.0,West,18.4,29.9,N/A,,Mostly Cloudy,270,2012-11-12 17:35:00
12:55 PM,33.8,26.6,75,30.16,10.0,West,21.9,27.6,N/A,,Scattered Clouds,260,2012-11-12 17:55:00
1:15 PM,35.6,26.6,70,30.17,10.0,West,19.6,27.6,N/A,,Scattered Clouds,260,2012-11-12 18:15:00
1:35 PM,35.6,26.6,70,30.17,10.0,West,19.6,28.8,N/A,,Mostly Cloudy,270,2012-11-12 18:35:00
1:55 PM,35.6,26.6,70,30.18,10.0,West,21.9,32.2,N/A,,Mostly Cloudy,260,2012-11-12 18:55:00
2:15 PM,37.4,28.4,70,30.18,10.0,West,16.1,25.3,N/A,,Mostly Cloudy,260,2012-11-12 19:15:00
2:35 PM,35.6,26.6,70,30.18,10.0,West,19.6,27.6,N/A,,Scattered Clouds,260,2012-11-12 19:35:00
2:55 PM,35.6,26.6,70,30.18,10.0,WSW,24.2,31.1,N/A,,Mostly Cloudy,250,2012-11-12 19:55:00
3:55 PM,35.6,24.8,65,30.20,10.0,WSW,20.7,29.9,N/A,,Scattered Clouds,250,2012-11-12 20:55:00
4:15 PM,35.6,26.6,70,30.21,10.0,West,21.9,31.1,N/A,,Scattered Clouds,260,2012-11-12 21:15:00
4:35 PM,33.8,23.0,65,30.22,10.0,West,18.4,32.2,N/A,,Mostly Cloudy,260,2012-11-12 21:35:00
4:55 PM,33.8,24.8,70,30.23,10.0,WSW,23.0,28.8,N/A,,Mostly Cloudy,250,2012-11-12 21:55:00
5:15 PM,33.8,23.0,65,30.24,10.0,West,17.3,27.6,N/A,,Mostly Cloudy,260,2012-11-12 22:15:00
5:35 PM,32.0,23.0,69,30.25,10.0,WSW,19.6,25.3,N/A,,Mostly Cloudy,250,2012-11-12 22:35:00
5:55 PM,32.0,23.0,69,30.26,10.0,WSW,15.0,-,N/A,,Mostly Cloudy,250,2012-11-12 22:55:00
6:15 PM,32.0,24.8,75,30.27,10.0,WSW,13.8,21.9,N/A,,Scattered Clouds,250,2012-11-12 23:15:00
6:35 PM,32.0,24.8,75,30.28,10.0,WSW,12.7,23.0,N/A,,Clear,250,2012-11-12 23:35:00
6:55 PM,32.0,26.6,80,30.28,10.0,WSW,11.5,-,N/A,,Clear,250,2012-11-12 23:55:00
7:15 PM,32.0,26.6,80,30.28,10.0,WSW,10.4,17.3,N/A,,Scattered Clouds,250,2012-11-13 00:15:00
7:35 PM,32.0,26.6,80,30.29,10.0,WSW,11.5,-,N/A,,Scattered Clouds,240,2012-11-13 00:35:00
7:55 PM,32.0,26.6,80,30.30,10.0,WSW,11.5,-,N/A,,Mostly Cloudy,250,2012-11-13 00:55:00
8:35 PM,32.0,26.6,80,30.31,10.0,SW,9.2,-,N/A,,Overcast,230,2012-11-13 01:35:00
8:55 PM,32.0,26.6,80,30.32,10.0,WSW,9.2,-,N/A,,Overcast,240,2012-11-13 01:55:00
9:15 PM,32.0,26.6,80,30.32,10.0,WSW,10.4,-,N/A,,Overcast,240,2012-11-13 02:15:00
9:35 PM,32.0,26.6,80,30.33,10.0,WSW,10.4,-,N/A,,Overcast,240,2012-11-13 02:35:00
9:55 PM,32.0,26.6,80,30.34,10.0,SW,9.2,-,N/A,,Overcast,230,2012-11-13 02:55:00
10:15 PM,32.0,26.6,80,30.34,10.0,SW,9.2,-,N/A,,Overcast,230,2012-11-13 03:15:00
10:35 PM,32.0,26.6,80,30.35,10.0,SW,10.4,-,N/A,,Overcast,230,2012-11-13 03:35:00
10:55 PM,32.0,26.6,80,30.35,10.0,WSW,10.4,-,N/A,,Overcast,240,2012-11-13 03:55:00
11:15 PM,33.8,26.6,75,30.35,10.0,WSW,11.5,-,N/A,,Overcast,250,2012-11-13 04:15:00
11:35 PM,32.0,26.6,80,30.35,10.0,WSW,10.4,-,N/A,,Overcast,250,2012-11-13 04:35:00
11:55 PM,32.0,26.6,80,30.36,10.0,WSW,10.4,-,N/A,,Mostly Cloudy,240,2012-11-13 04:55:00